sat.trackr.live / text

‹ back to catalog

UNKNOWN

NORAD 87878

UNKNOWN UNKNOWN UNKNOWN

§ Identity

Operator
Country
Launch date
Launch site
Launch vehicle
Mass (kg)
RCS (m²)

External: N2YO · Heavens-Above

§ Orbital elements

Epoch: 2026-09-13T04:29:08.508192Z

Period
99.84 min
Inclination
99.1854°
Eccentricity
0.0035084
Mean motion
14.42371202 rev/d
Perigee alt
725.7 km
Apogee alt
775.7 km
Semi-major
7,128.8 km
B*
5.7533e-4
RAAN
40.7117°
Arg perigee
177.6684°
Mean anomaly
182.4673°
Rev number
65,084

§ Raw data

UNKNOWN1 87878U          26256.18690403  .00001866  00000+0  57533-3 0  99962 87878  99.1854  40.7117 0035084 177.6684 182.4673 14.42371202650845

JSON: /api/v1/satellites/87878 · /tle

For live sub-satellite position, see the globe view (requires WebGL).

§ Visibility from observer

Set your observer location to see the next 7 days of passes ≥ 10°. The values pass through the URL so the page stays shareable.

No JS? Fill the form by hand. The geolocation button needs JavaScript.